Home   Weather   Reims   Past weeks

Flag for France Past Weather in Reims, Champagne-Ardenne, France — Yesterday and Last 2 Weeks

Now
57 °F

Clear.


Feels Like: 57 °F
Forecast: 57 / 77 °F
Wind: 3 mph from South

Location: Chalons-Vatry

Current Time: Aug 21, 2017 at 2:54:22 am

Latest Report: Aug 21, 2017 at 2:00 am


Visibility: 10 mi

Pressure: 30.27 "Hg

Humidity: 77%

Dew Point: 50 °F

Location of ReimsLocation

Past Weather in Reims — Graph

°F

Reims Temperature Yesterday

Maximum temperature yesterday: 68 °F (at 2:00 pm)
Minimum temperature yesterday: 48 °F (at 7:00 am)
Average temperature yesterday: 60 °F

High & Low Weather Summary for the Past Weeks

 TemperatureHumidityPressure
High82 °F (Aug 14, 6:00 pm)100% (Aug 9, 1:30 am)30.30 "Hg (Aug 9, 1:30 am)
Low46 °F (Aug 10, 4:30 am)32% (Aug 7, 5:30 pm)29.77 "Hg (Aug 8, 6:00 am)
Average63 °F77%30.08 "Hg
* Reported Aug 6 1:00 am — Aug 21 1:30 am, Reims. Weather by CustomWeather, © 2017

Note: Actual official high and low records may vary slightly from our data, if they occured in-between our weather recording intervals... More about our weather records

Advertising

Reims Weather History for the Previous 24 Hours

Scroll right to see more
 ConditionsComfort  
Time TempWeatherWind HumidityBarometerVisibility
1:30 am
Mon, Aug 21
57 °FClear.5 mph77%30.27 "Hg10 mi
1:00 am57 °FClear.5 mph72%30.27 "Hg10 mi
12:30 am57 °FClear.3 mph72%30.27 "Hg10 mi
12:00 am57 °FClear.5 mph72%30.27 "Hg10 mi
11:30 pm
Sun, Aug 20
57 °FClear.3 mph72%30.27 "Hg10 mi
11:00 pm57 °FClear.3 mph72%30.27 "Hg10 mi
10:30 pm59 °FClear.3 mph68%30.27 "Hg10 mi
10:00 pm59 °FClear.2 mph72%30.30 "Hg10 mi
9:30 pm59 °FSunny.2 mph72%30.27 "Hg10 mi
9:00 pm61 °FSunny.2 mph68%30.27 "Hg10 mi
8:30 pm63 °FSunny.2 mph68%30.27 "Hg10 mi
8:00 pm66 °FSunny.3 mph60%30.27 "Hg10 mi
7:30 pm66 °FSunny.5 mph52%30.27 "Hg10 mi
7:00 pm68 °FPassing clouds.6 mph49%30.27 "HgN/A
6:30 pm66 °FSunny.2 mph56%30.27 "Hg10 mi
6:00 pm66 °FPassing clouds.5 mph52%30.27 "HgN/A
5:30 pm68 °FPartly sunny.7 mph46%30.30 "HgN/A
5:00 pm68 °FPartly sunny.6 mph49%30.30 "HgN/A
4:30 pm68 °FPartly sunny.5 mph49%30.30 "HgN/A
4:00 pm68 °FPassing clouds.5 mph49%30.30 "HgN/A
3:30 pm66 °FPassing clouds.7 mph52%30.30 "HgN/A
3:00 pm66 °FMore clouds than sun.9 mph52%30.30 "HgN/A
2:30 pm66 °FPartly sunny.7 mph56%30.30 "HgN/A
2:00 pm68 °FPassing clouds.6 mph53%30.30 "HgN/A
1:30 pm64 °FPartly sunny.7 mph56%30.30 "HgN/A
1:00 pm64 °FBroken clouds.7 mph56%30.30 "HgN/A
12:30 pm64 °FBroken clouds.5 mph56%30.30 "HgN/A
12:00 pm64 °FScattered clouds.5 mph56%30.30 "HgN/A
11:30 am63 °FBroken clouds.6 mph59%30.30 "HgN/A
11:00 am63 °FPassing clouds.6 mph73%30.30 "HgN/A
10:30 am61 °FSunny.7 mph77%30.30 "Hg10 mi
10:00 am59 °FSunny.8 mph82%30.30 "Hg10 mi
9:30 am57 °FPassing clouds.7 mph82%30.30 "HgN/A
9:00 am55 °FSunny.8 mph88%30.27 "Hg10 mi
8:30 am54 °FSunny.6 mph88%30.27 "Hg10 mi
8:00 am52 °FPassing clouds.6 mph94%30.27 "HgN/A
7:30 am48 °FClear.3 mph94%30.27 "Hg10 mi
7:00 am48 °FClear.2 mph94%30.24 "Hg10 mi
6:30 am50 °FClear.2 mph88%30.24 "Hg10 mi
6:00 am50 °FClear.1 mph88%30.24 "Hg10 mi
5:30 am52 °FClear.1 mph88%30.24 "Hg10 mi
5:00 am52 °FClear.No wind94%30.24 "Hg10 mi
4:30 am52 °FClear.No wind94%30.24 "Hg10 mi
4:00 am54 °FClear.1 mph88%30.24 "Hg10 mi
3:30 am55 °FClear.3 mph82%30.24 "Hg10 mi
3:00 am55 °FClear.5 mph82%30.21 "Hg10 mi
2:00 am55 °FClear.3 mph88%30.21 "Hg10 mi
Weather by CustomWeather, © 2017

See weather overviewHow to use our weather pages